Regional Weather Roundup
Issued by NWS Eureka, CA

Home | Current Version | Previous Version | Text Only | Print | Product List | Glossary On
Versions: 1 2 3 4 5 6 7 8 9 10 11 12 13 14 15 16 17 18 19 20 21 22 23 24 25 26 27
000
ASUS46 KEKA 310611
RWREKA
Eureka Area Weather Roundup
National Weather Service Eureka CA
1100 PM PDT FRI JUL 30 2021

Note: "fair" indicates few or no clouds below 12,000 feet with no
significant weather and/or obstructions to visibility.

Southwest Oregon...

CITY           SKY/WX    TMP DP  RH WIND       PRES   REMARKS
MEDFORD        MOCLDY    81  57  43 SW6       29.96S
KLAMATH FALLS  PTCLDY    71  54  54 NW5       30.14S
NORTH BEND     CLOUDY    57  56  96 N9        30.03F
ROSEBURG       MOCLDY    82  49  31 CALM      29.95R
SEXTON SUMMIT  PTCLDY    74  47  38 CALM      30.14R
BROOKINGS      PTCLDY    57  56  96 S5        29.99R

Northwest California...

CITY           SKY/WX    TMP DP  RH WIND       PRES   REMARKS
CRESCENT CITY  FOG       53  52  96 S8        29.98S VSB 1
MCKINLEYVILLE  CLOUDY    53  52  96 SE6       29.98S FOG
EUREKA         FOG       53  50  90 SW3       29.99S VSB 1
FORTUNA        CLOUDY    52  52 100 CALM      30.00S VSB<1/4
WEAVERVILLE    NOT AVBL
TRINITY CENTER NOT AVBL
UKIAH          CLEAR     76  47  35 CALM      29.92R

North & Central California...

CITY           SKY/WX    TMP DP  RH WIND       PRES   REMARKS
YREKA          PTCLDY    75  56  51 S5        30.08R
MOUNT SHASTA   PTCLDY    75  51  43 CALM      30.11R
REDDING        MOCLDY    93  55  27 CALM      29.84R HX  91
RED BLUFF      MOCLDY    89  61  38 NW3       29.83S
CHICO            N/A     91  52  25 NE3       29.83S
YUBA CITY      MOCLDY    84  54  35 SE13      29.83R
SACRAMENTO     PTCLDY    69  53  56 S5        29.86R
SANTA ROSA     CLOUDY    54  52  93 S6        29.97S
NAPA           LGT RAIN  60  57  89 S15       29.95S
TRAVIS AFB     NOT AVBL
SAN FRANCISCO  PTCLDY    61  55  81 W6        29.96S
OAKLAND        MOCLDY    60  56  86 N8        29.98S
STOCKTON       NOT AVBL
SALINAS        CLOUDY    60  57  89 NW7       30.01S
MONTEREY       CLOUDY    63  57  81 VRB3      30.01S

$$



USA.gov is the U.S. government's official web portal to all federal, state and local government web resources and services.